Time,TemperatureF,DewpointF,PressureIn,WindDirection,WindDirectionDegrees,WindSpeedMPH,WindSpeedGustMPH,Humidity,HourlyPrecipIn,Conditions,Clouds,dailyrainin,SoftwareType,DateUTC
2013-02-09 00:04:00,17.5,16.0,29.62,NNE,32,0.0,-999.0,93,-99.99,,,0.00,weatherlink.com 1.10,2013-02-09 05:04:00,
2013-02-09 00:19:00,17.3,16.0,29.62,NNW,348,0.0,-999.0,93,-99.99,,,0.00,weatherlink.com 1.10,2013-02-09 05:19:00,
2013-02-09 00:34:00,17.0,15.0,29.60,NNE,25,0.0,-999.0,93,-99.99,,,0.00,weatherlink.com 1.10,2013-02-09 05:34:00,
2013-02-09 00:49:00,16.8,15.0,29.59,NW,317,0.0,-999.0,93,-99.99,,,0.00,weatherlink.com 1.10,2013-02-09 05:49:00,
2013-02-09 01:04:00,16.6,15.0,29.61,NNE,25,0.0,-999.0,93,-99.99,,,0.00,weatherlink.com 1.10,2013-02-09 06:04:00,
2013-02-09 01:19:00,16.6,15.0,29.59,NNW,348,0.0,-999.0,93,-99.99,,,0.00,weatherlink.com 1.10,2013-02-09 06:19:00,
2013-02-09 01:34:00,16.7,15.0,29.60,NNW,336,0.0,-999.0,93,-99.99,,,0.00,weatherlink.com 1.10,2013-02-09 06:34:00,
2013-02-09 01:49:00,16.8,15.0,29.61,NW,309,0.0,-999.0,93,-99.99,,,0.00,weatherlink.com 1.10,2013-02-09 06:49:00,
2013-02-09 02:04:00,17.0,15.0,29.60,NNW,333,0.0,-999.0,93,-99.99,,,0.00,weatherlink.com 1.10,2013-02-09 07:04:00,
2013-02-09 02:19:00,16.9,15.0,29.59,NNW,339,0.0,-999.0,93,-99.99,,,0.00,weatherlink.com 1.10,2013-02-09 07:19:00,
2013-02-09 02:34:00,16.9,15.0,29.59,WNW,300,0.0,-999.0,93,-99.99,,,0.00,weatherlink.com 1.10,2013-02-09 07:34:00,
2013-02-09 02:50:00,17.0,15.0,29.58,North,5,0.0,-999.0,93,-99.99,,,0.00,weatherlink.com 1.10,2013-02-09 07:50:00,
2013-02-09 03:05:00,17.0,15.0,29.58,NE,39,0.0,-999.0,93,-99.99,,,0.00,weatherlink.com 1.10,2013-02-09 08:05:00,
2013-02-09 03:19:00,17.1,16.0,29.60,NW,322,0.0,-999.0,93,-99.99,,,0.00,weatherlink.com 1.10,2013-02-09 08:19:00,
2013-02-09 03:34:00,17.1,16.0,29.60,North,5,0.0,-999.0,93,-99.99,,,0.00,weatherlink.com 1.10,2013-02-09 08:34:00,
2013-02-09 03:49:00,17.1,16.0,29.60,North,360,0.0,-999.0,93,-99.99,,,0.00,weatherlink.com 1.10,2013-02-09 08:49:00,
2013-02-09 04:04:00,17.0,15.0,29.61,NE,38,0.0,-999.0,93,-99.99,,,0.00,weatherlink.com 1.10,2013-02-09 09:04:00,
2013-02-09 04:19:00,17.1,16.0,29.61,North,10,0.0,-999.0,93,-99.99,,,0.00,weatherlink.com 1.10,2013-02-09 09:19:00,
2013-02-09 04:34:00,17.2,16.0,29.60,North,355,0.0,-999.0,94,-99.99,,,0.00,weatherlink.com 1.10,2013-02-09 09:34:00,
2013-02-09 04:50:00,17.5,16.0,29.61,West,269,0.0,-999.0,94,-99.99,,,0.00,weatherlink.com 1.10,2013-02-09 09:50:00,
2013-02-09 05:04:00,17.8,16.0,29.61,NNE,22,0.0,-999.0,94,-99.99,,,0.00,weatherlink.com 1.10,2013-02-09 10:04:00,
2013-02-09 05:19:00,18.1,17.0,29.60,NNE,32,0.0,-999.0,94,-99.99,,,0.00,weatherlink.com 1.10,2013-02-09 10:19:00,
2013-02-09 05:34:00,18.5,17.0,29.60,North,5,0.0,-999.0,94,-99.99,,,0.00,weatherlink.com 1.10,2013-02-09 10:34:00,
2013-02-09 05:49:00,18.8,17.0,29.61,NNW,347,0.0,-999.0,94,-99.99,,,0.00,weatherlink.com 1.10,2013-02-09 10:49:00,
2013-02-09 06:09:00,19.2,18.0,29.61,North,5,0.0,-999.0,94,-99.99,,,0.00,weatherlink.com 1.10,2013-02-09 11:09:00,
2013-02-09 06:19:00,19.5,18.0,29.62,North,5,0.0,-999.0,94,-99.99,,,0.00,weatherlink.com 1.10,2013-02-09 11:19:00,
2013-02-09 06:34:00,19.7,18.0,29.64,NNE,31,0.0,-999.0,94,-99.99,,,0.00,weatherlink.com 1.10,2013-02-09 11:34:00,
2013-02-09 06:49:00,19.7,18.0,29.65,NW,314,0.0,-999.0,94,-99.99,,,0.00,weatherlink.com 1.10,2013-02-09 11:49:00,
2013-02-09 07:04:00,19.7,18.0,29.64,NNW,335,0.0,-999.0,94,-99.99,,,0.00,weatherlink.com 1.10,2013-02-09 12:04:00,
2013-02-09 07:19:00,19.7,18.0,29.66,NNW,347,0.0,-999.0,94,-99.99,,,0.00,weatherlink.com 1.10,2013-02-09 12:19:00,
2013-02-09 07:34:00,19.7,18.0,29.66,NNW,342,0.0,-999.0,94,-99.99,,,0.00,weatherlink.com 1.10,2013-02-09 12:34:00,
2013-02-09 07:49:00,19.7,18.0,29.67,NNE,18,0.0,-999.0,94,-99.99,,,0.00,weatherlink.com 1.10,2013-02-09 12:49:00,
2013-02-09 08:04:00,19.7,18.0,29.68,NE,42,0.0,-999.0,94,-99.99,,,0.00,weatherlink.com 1.10,2013-02-09 13:04:00,
2013-02-09 08:19:00,19.7,18.0,29.68,NW,315,0.0,-999.0,94,-99.99,,,0.00,weatherlink.com 1.10,2013-02-09 13:19:00,
2013-02-09 08:35:00,19.5,18.0,29.69,NNW,333,0.0,-999.0,94,-99.99,,,0.00,weatherlink.com 1.10,2013-02-09 13:35:00,
2013-02-09 08:49:00,19.3,18.0,29.70,WNW,303,0.0,-999.0,94,-99.99,,,0.00,weatherlink.com 1.10,2013-02-09 13:49:00,
2013-02-09 09:05:00,19.0,18.0,29.71,NNW,331,0.0,-999.0,94,-99.99,,,0.00,weatherlink.com 1.10,2013-02-09 14:05:00,
2013-02-09 09:20:00,18.5,17.0,29.71,NNW,336,0.0,-999.0,94,-99.99,,,0.00,weatherlink.com 1.10,2013-02-09 14:20:00,
2013-02-09 09:35:00,18.3,17.0,29.72,WNW,300,0.0,-999.0,94,-99.99,,,0.00,weatherlink.com 1.10,2013-02-09 14:35:00,
2013-02-09 09:49:00,18.2,17.0,29.73,NW,321,0.0,-999.0,94,-99.99,,,0.00,weatherlink.com 1.10,2013-02-09 14:49:00,
2013-02-09 10:04:00,18.2,17.0,29.74,NW,317,0.0,-999.0,94,-99.99,,,0.00,weatherlink.com 1.10,2013-02-09 15:04:00,
2013-02-09 10:19:00,18.2,17.0,29.75,WNW,294,0.0,-999.0,94,-99.99,,,0.00,weatherlink.com 1.10,2013-02-09 15:19:00,
2013-02-09 10:34:00,18.3,17.0,29.75,WSW,258,0.0,-999.0,94,-99.99,,,0.00,weatherlink.com 1.10,2013-02-09 15:34:00,
2013-02-09 10:49:00,18.4,17.0,29.76,WNW,299,0.0,-999.0,94,-99.99,,,0.00,weatherlink.com 1.10,2013-02-09 15:49:00,
2013-02-09 11:04:00,18.4,17.0,29.76,North,5,0.0,-999.0,94,-99.99,,,0.00,weatherlink.com 1.10,2013-02-09 16:04:00,
2013-02-09 11:19:00,18.7,17.0,29.77,NE,34,0.0,-999.0,94,-99.99,,,0.00,weatherlink.com 1.10,2013-02-09 16:19:00,
2013-02-09 11:34:00,19.0,18.0,29.77,NW,317,0.0,-999.0,94,-99.99,,,0.00,weatherlink.com 1.10,2013-02-09 16:34:00,
2013-02-09 11:49:00,19.6,18.0,29.77,NNE,31,0.0,-999.0,94,-99.99,,,0.00,weatherlink.com 1.10,2013-02-09 16:49:00,
2013-02-09 12:05:00,20.2,19.0,29.77,NW,321,0.0,-999.0,95,-99.99,,,0.00,weatherlink.com 1.10,2013-02-09 17:05:00,
2013-02-09 12:20:00,20.8,20.0,29.79,NNW,327,0.0,-999.0,95,-99.99,,,0.00,weatherlink.com 1.10,2013-02-09 17:20:00,
2013-02-09 12:34:00,21.3,20.0,29.79,North,355,0.0,-999.0,95,-99.99,,,0.00,weatherlink.com 1.10,2013-02-09 17:34:00,
2013-02-09 12:49:00,21.2,20.0,29.80,NNW,331,0.0,-999.0,95,-99.99,,,0.00,weatherlink.com 1.10,2013-02-09 17:49:00,
2013-02-09 13:04:00,21.1,20.0,29.80,North,5,0.0,-999.0,95,-99.99,,,0.00,weatherlink.com 1.10,2013-02-09 18:04:00,
2013-02-09 13:19:00,21.1,20.0,29.82,North,5,0.0,-999.0,94,-99.99,,,0.00,weatherlink.com 1.10,2013-02-09 18:19:00,
2013-02-09 13:34:00,20.9,20.0,29.82,NW,321,0.0,-999.0,94,-99.99,,,0.00,weatherlink.com 1.10,2013-02-09 18:34:00,
2013-02-09 13:49:00,20.6,19.0,29.83,NNE,26,0.0,-999.0,94,-99.99,,,0.00,weatherlink.com 1.10,2013-02-09 18:49:00,
2013-02-09 14:04:00,20.4,19.0,29.83,WNW,296,0.0,-999.0,94,-99.99,,,0.00,weatherlink.com 1.10,2013-02-09 19:04:00,
2013-02-09 14:20:00,20.3,19.0,29.85,NNW,336,0.0,-999.0,94,-99.99,,,0.00,weatherlink.com 1.10,2013-02-09 19:20:00,
2013-02-09 14:34:00,20.2,19.0,29.86,WNW,289,0.0,-999.0,94,-99.99,,,0.00,weatherlink.com 1.10,2013-02-09 19:34:00,
2013-02-09 14:49:00,20.3,19.0,29.88,North,360,0.0,-999.0,94,-99.99,,,0.00,weatherlink.com 1.10,2013-02-09 19:49:00,
2013-02-09 15:04:00,20.5,19.0,29.89,NNW,330,0.0,-999.0,94,-99.99,,,0.00,weatherlink.com 1.10,2013-02-09 20:04:00,
2013-02-09 15:20:00,20.8,19.0,29.91,West,271,0.0,-999.0,94,-99.99,,,0.00,weatherlink.com 1.10,2013-02-09 20:20:00,
2013-02-09 15:35:00,20.7,19.0,29.91,WNW,300,0.0,-999.0,94,-99.99,,,0.00,weatherlink.com 1.10,2013-02-09 20:35:00,
2013-02-09 15:49:00,20.6,19.0,29.92,NW,309,0.0,-999.0,94,-99.99,,,0.00,weatherlink.com 1.10,2013-02-09 20:49:00,
2013-02-09 16:05:00,20.2,19.0,29.93,NW,316,0.0,-999.0,94,-99.99,,,0.00,weatherlink.com 1.10,2013-02-09 21:05:00,
2013-02-09 16:19:00,19.9,19.0,29.94,NW,315,0.0,-999.0,94,-99.99,,,0.00,weatherlink.com 1.10,2013-02-09 21:19:00,
2013-02-09 16:34:00,19.8,18.0,29.95,NNW,342,0.0,-999.0,94,-99.99,,,0.00,weatherlink.com 1.10,2013-02-09 21:34:00,
2013-02-09 16:49:00,20.0,19.0,29.95,West,281,0.0,-999.0,94,-99.99,,,0.00,weatherlink.com 1.10,2013-02-09 21:49:00,
2013-02-09 17:04:00,20.0,19.0,29.97,WNW,297,0.0,-999.0,94,-99.99,,,0.00,weatherlink.com 1.10,2013-02-09 22:04:00,
2013-02-09 17:19:00,19.8,18.0,29.98,NNW,342,0.0,-999.0,94,-99.99,,,0.00,weatherlink.com 1.10,2013-02-09 22:19:00,
2013-02-09 17:34:00,19.7,18.0,29.99,North,351,0.0,-999.0,94,-99.99,,,0.00,weatherlink.com 1.10,2013-02-09 22:34:00,
2013-02-09 17:50:00,19.4,18.0,30.00,North,5,0.0,-999.0,94,-99.99,,,0.00,weatherlink.com 1.10,2013-02-09 22:50:00,
2013-02-09 18:05:00,19.2,18.0,30.01,North,355,0.0,-999.0,94,-99.99,,,0.00,weatherlink.com 1.10,2013-02-09 23:05:00,
2013-02-09 18:19:00,18.9,18.0,30.02,NW,323,0.0,-999.0,94,-99.99,,,0.00,weatherlink.com 1.10,2013-02-09 23:19:00,
2013-02-09 18:34:00,18.6,17.0,30.03,NNW,345,0.0,-999.0,94,-99.99,,,0.00,weatherlink.com 1.10,2013-02-09 23:34:00,
2013-02-09 18:49:00,18.3,17.0,30.05,NNW,337,0.0,-999.0,94,-99.99,,,0.00,weatherlink.com 1.10,2013-02-09 23:49:00,
2013-02-09 19:05:00,18.1,16.0,30.05,NNE,15,0.0,-999.0,93,-99.99,,,0.00,weatherlink.com 1.10,2013-02-10 00:05:00,
2013-02-09 19:19:00,17.9,17.0,30.06,NNW,348,0.0,-999.0,94,-99.99,,,0.00,weatherlink.com 1.10,2013-02-10 00:19:00,
2013-02-09 19:35:00,17.6,16.0,30.06,NNE,22,0.0,-999.0,94,-99.99,,,0.00,weatherlink.com 1.10,2013-02-10 00:35:00,
2013-02-09 19:49:00,17.1,16.0,30.08,NW,323,0.0,-999.0,93,-99.99,,,0.00,weatherlink.com 1.10,2013-02-10 00:49:00,
2013-02-09 20:04:00,16.7,15.0,30.08,WNW,300,0.0,-999.0,93,-99.99,,,0.00,weatherlink.com 1.10,2013-02-10 01:04:00,
2013-02-09 20:19:00,16.3,15.0,30.09,WNW,292,0.0,-999.0,93,-99.99,,,0.00,weatherlink.com 1.10,2013-02-10 01:19:00,
2013-02-09 20:35:00,15.9,14.0,30.11,NW,309,0.0,-999.0,93,-99.99,,,0.00,weatherlink.com 1.10,2013-02-10 01:35:00,
2013-02-09 20:49:00,15.6,14.0,30.10,WNW,294,0.0,-999.0,93,-99.99,,,0.00,weatherlink.com 1.10,2013-02-10 01:49:00,
2013-02-09 21:04:00,15.3,14.0,30.11,NNW,336,0.0,-999.0,93,-99.99,,,0.00,weatherlink.com 1.10,2013-02-10 02:04:00,
2013-02-09 21:19:00,15.0,13.0,30.12,NW,314,0.0,-999.0,93,-99.99,,,0.00,weatherlink.com 1.10,2013-02-10 02:19:00,
2013-02-09 21:34:00,14.8,13.0,30.12,NW,311,0.0,-999.0,93,-99.99,,,0.00,weatherlink.com 1.10,2013-02-10 02:34:00,
2013-02-09 21:49:00,14.6,13.0,30.13,North,355,0.0,-999.0,92,-99.99,,,0.00,weatherlink.com 1.10,2013-02-10 02:49:00,
2013-02-09 22:04:00,14.5,13.0,30.13,NW,320,0.0,-999.0,92,-99.99,,,0.00,weatherlink.com 1.10,2013-02-10 03:04:00,
2013-02-09 22:19:00,14.3,13.0,30.14,NNW,331,0.0,-999.0,93,-99.99,,,0.00,weatherlink.com 1.10,2013-02-10 03:19:00,
2013-02-09 22:34:00,14.1,13.0,30.14,WNW,289,0.0,-999.0,93,-99.99,,,0.00,weatherlink.com 1.10,2013-02-10 03:34:00,
2013-02-09 22:49:00,14.0,12.0,30.15,NW,314,0.0,-999.0,92,-99.99,,,0.00,weatherlink.com 1.10,2013-02-10 03:49:00,
2013-02-09 23:05:00,13.9,12.0,30.16,North,355,0.0,-999.0,92,-99.99,,,0.00,weatherlink.com 1.10,2013-02-10 04:05:00,
2013-02-09 23:20:00,13.8,12.0,30.15,NW,325,0.0,-999.0,92,-99.99,,,0.00,weatherlink.com 1.10,2013-02-10 04:20:00,
2013-02-09 23:35:00,13.8,12.0,30.16,WNW,290,0.0,-999.0,92,-99.99,,,0.00,weatherlink.com 1.10,2013-02-10 04:35:00,
2013-02-09 23:49:00,13.8,12.0,30.17,WNW,289,0.0,-999.0,92,-99.99,,,0.00,weatherlink.com 1.10,2013-02-10 04:49:00,